Valdez, AK

1:07 PM AKST on December 06, 2016 (GMT -0900)
Valdez

Weather History for PAVD - December, 2013

Change the Weather History Date:

Monday, December 2, 2013

  Actual Average Record
Temperature  
Mean Temperature 18 °F -  
Max Temperature 26 °F 29 °F 53 °F (1966)
Min Temperature 10 °F 20 °F -3 °F (1964)
Degree Days  
Heating Degree Days 47    
Moisture  
Dew Point 2 °F    
Average Humidity 50    
Maximum Humidity 73    
Minimum Humidity 34    
Precipitation  
Precipitation 0.00 in - - ()
Sea Level Pressure  
Sea Level Pressure 30.66 in    
Wind  
Wind Speed 7 mph (East)    
Max Wind Speed 16 mph    
Max Gust Speed 22 mph    
Visibility 10 miles    
Events      
Averages and records for this station are not official NWS values.
T = Trace of Precipitation, MM = Missing Value Source: NWS Daily Summary

Daily Weather History Graph

Daily Weather History Graph

Search for Another Location

Airport or City:

Trip Planner

Search our weather history database for the weather conditions in past years. The results will help you decide how hot, cold, wet, or windy it might be!

Date:

Astronomy

Dec. 02, 2013 Rise Set
Actual Time 9:33 AM AKST 3:35 PM AKST
Civil Twilight 8:34 AM AKST 4:33 PM AKST
Nautical Twilight 7:37 AM AKST 5:31 PM AKST
Astronomical Twilight 6:44 AM AKST 6:24 PM AKST
Moon 8:56 AM AKST (12/2) 3:58 PM AKST (12/2)
Length of Visible Light 7h 59m
Length of Day
6h 02m
Waning Crescent, 0% of the Moon is Illuminated
Dec 2
Waning Crescent
Dec 2
New
Dec 9
First Quarter
Dec 17
Full
Dec 25
Last Quarter

Hourly Weather History & Observations

Time (AKST) Temp. Windchill Dew Point Humidity Pressure Visibility Wind Dir Wind Speed Gust Speed Precip Events Conditions
12:16 AM 24.8 °F 11.9 °F 1.4 °F 36% 30.53 in 10.0 mi East 16.1 mph - N/A   Clear
12:36 AM 24.8 °F 12.4 °F 3.2 °F 40% 30.53 in 10.0 mi East 15.0 mph 21.9 mph N/A   Clear
12:56 AM 24.8 °F 14.0 °F 3.2 °F 40% 30.54 in 10.0 mi East 11.5 mph 18.4 mph N/A   Clear
1:16 AM 24.8 °F 14.0 °F 1.4 °F 36% 30.55 in 10.0 mi ENE 11.5 mph 20.7 mph N/A   Clear
1:36 AM 24.8 °F 14.0 °F 3.2 °F 40% 30.54 in 10.0 mi ENE 11.5 mph - N/A   Clear
1:56 AM 24.8 °F 14.0 °F 1.4 °F 36% 30.54 in 10.0 mi ENE 11.5 mph 19.6 mph N/A   Clear
2:16 AM 26.6 °F 15.2 °F 1.4 °F 34% 30.54 in 10.0 mi East 13.8 mph 21.9 mph N/A   Clear
2:36 AM 24.8 °F 15.3 °F 3.2 °F 40% 30.54 in 10.0 mi East 9.2 mph - N/A   Clear
2:56 AM 24.8 °F 15.3 °F 3.2 °F 40% 30.55 in 10.0 mi East 9.2 mph - N/A   Clear
3:16 AM 24.8 °F 15.3 °F 1.4 °F 36% 30.55 in 10.0 mi ENE 9.2 mph 21.9 mph N/A   Clear
3:36 AM 24.8 °F 13.4 °F 1.4 °F 36% 30.55 in 10.0 mi East 12.7 mph 17.3 mph N/A   Clear
3:56 AM 24.8 °F 14.0 °F 1.4 °F 36% 30.54 in 10.0 mi East 11.5 mph 20.7 mph N/A   Clear
4:16 AM 24.8 °F 16.1 °F 3.2 °F 40% 30.55 in 10.0 mi ENE 8.1 mph - N/A   Clear
4:36 AM 24.8 °F 16.9 °F 1.4 °F 36% 30.56 in 10.0 mi ENE 6.9 mph - N/A   Clear
4:56 AM 24.8 °F 14.6 °F 1.4 °F 36% 30.57 in 10.0 mi SE 10.4 mph - N/A   Clear
5:16 AM 24.8 °F 20.5 °F 1.4 °F 36% 30.57 in 10.0 mi ENE 3.5 mph - N/A   Clear
5:36 AM 21.2 °F 13.6 °F -0.4 °F 39% 30.58 in 10.0 mi West 5.8 mph - N/A   Clear
5:56 AM 19.4 °F 10.4 °F 1.4 °F 46% 30.58 in 10.0 mi East 6.9 mph - N/A   Clear
6:16 AM 19.4 °F 14.3 °F 3.2 °F 49% 30.59 in 10.0 mi West 3.5 mph - N/A   Clear
6:36 AM 19.4 °F 12.8 °F 1.4 °F 46% 30.60 in 10.0 mi SW 4.6 mph - N/A   Clear
6:56 AM 19.4 °F 14.3 °F -0.4 °F 42% 30.61 in 10.0 mi NNW 3.5 mph - N/A   Clear
7:16 AM 19.4 °F 14.3 °F -0.4 °F 42% 30.61 in 10.0 mi WNW 3.5 mph - N/A   Clear
7:36 AM 17.6 °F 9.3 °F -0.4 °F 45% 30.60 in 10.0 mi East 5.8 mph - N/A   Clear
7:56 AM 17.6 °F - 1.4 °F 49% 30.61 in 10.0 mi Calm Calm - N/A   Clear
8:16 AM 15.8 °F - 1.4 °F 53% 30.61 in 10.0 mi Calm Calm - N/A   Clear
8:36 AM 15.8 °F - 3.2 °F 58% 30.61 in 10.0 mi Calm Calm - N/A   Clear
8:56 AM 17.6 °F - 1.4 °F 49% 30.62 in 10.0 mi Calm Calm - N/A   Clear
9:16 AM 19.4 °F - 1.4 °F 46% 30.63 in 10.0 mi Calm Calm - N/A   Clear
9:36 AM 17.6 °F 12.3 °F 1.4 °F 49% 30.63 in 10.0 mi SE 3.5 mph - N/A   Clear
9:56 AM 19.4 °F 11.5 °F 3.2 °F 49% 30.64 in 10.0 mi WNW 5.8 mph - N/A   Partly Cloudy
10:16 AM 15.8 °F 8.6 °F -2.2 °F 45% 30.65 in 10.0 mi West 4.6 mph - N/A   Partly Cloudy
10:36 AM 19.4 °F 12.8 °F 3.2 °F 49% 30.66 in 10.0 mi West 4.6 mph - N/A   Partly Cloudy
10:56 AM 21.2 °F 13.6 °F 1.4 °F 42% 30.67 in 10.0 mi SW 5.8 mph - N/A   Partly Cloudy
11:16 AM 17.6 °F 12.3 °F -0.4 °F 45% 30.67 in 10.0 mi WSW 3.5 mph - N/A   Partly Cloudy
11:36 AM 19.4 °F 12.8 °F -0.4 °F 42% 30.68 in 10.0 mi NNW 4.6 mph - N/A   Partly Cloudy
11:56 AM 21.2 °F - -0.4 °F 39% 30.68 in 10.0 mi Calm Calm - N/A   Partly Cloudy
12:16 PM 17.6 °F - 1.4 °F 49% 30.69 in 10.0 mi Calm Calm - N/A   Partly Cloudy
12:36 PM 17.6 °F 12.3 °F 1.4 °F 49% 30.69 in 10.0 mi NNE 3.5 mph - N/A   Partly Cloudy
12:56 PM 19.4 °F - 3.2 °F 49% 30.69 in 10.0 mi Calm Calm - N/A   Partly Cloudy
1:16 PM 19.4 °F 12.8 °F 3.2 °F 49% 30.69 in 10.0 mi East 4.6 mph - N/A   Partly Cloudy
1:36 PM 19.4 °F - 3.2 °F 49% 30.68 in 10.0 mi Calm Calm - N/A   Partly Cloudy
1:56 PM 19.4 °F - 1.4 °F 46% 30.69 in 10.0 mi Calm Calm - N/A   Scattered Clouds
2:16 PM 19.4 °F - 3.2 °F 49% 30.69 in 10.0 mi Calm Calm - N/A   Scattered Clouds
2:36 PM 19.4 °F - 3.2 °F 49% 30.69 in 10.0 mi Calm Calm - N/A   Scattered Clouds
2:56 PM 17.6 °F 12.3 °F 1.4 °F 49% 30.70 in 10.0 mi East 3.5 mph - N/A   Mostly Cloudy
3:16 PM 17.6 °F - 3.2 °F 53% 30.71 in 10.0 mi Calm Calm - N/A   Mostly Cloudy
3:36 PM 19.4 °F - 6.8 °F 58% 30.71 in 10.0 mi Calm Calm - N/A   Mostly Cloudy
3:56 PM 15.8 °F - 1.4 °F 53% 30.72 in 10.0 mi Calm Calm - N/A   Mostly Cloudy
4:16 PM 14.0 °F 8.2 °F 3.2 °F 62% 30.72 in 10.0 mi East 3.5 mph - N/A   Mostly Cloudy
4:36 PM 15.8 °F 10.2 °F 3.2 °F 58% 30.72 in 10.0 mi East 3.5 mph - N/A   Mostly Cloudy
4:56 PM 12.2 °F 6.1 °F 1.4 °F 62% 30.72 in 10.0 mi East 3.5 mph - N/A   Mostly Cloudy
5:16 PM 12.2 °F - 3.2 °F 67% 30.72 in 10.0 mi Calm Calm - N/A   Mostly Cloudy
5:36 PM 14.0 °F - 3.2 °F 62% 30.72 in 10.0 mi Calm Calm - N/A   Mostly Cloudy
5:56 PM 15.8 °F - 6.8 °F 68% 30.72 in 10.0 mi Calm Calm - N/A   Partly Cloudy
6:16 PM 14.0 °F - 5.0 °F 67% 30.72 in 10.0 mi Calm Calm - N/A   Partly Cloudy
6:36 PM 10.4 °F 2.2 °F 3.2 °F 73% 30.72 in 10.0 mi East 4.6 mph - N/A   Partly Cloudy
6:56 PM 14.0 °F 6.5 °F 5.0 °F 67% 30.72 in 10.0 mi South 4.6 mph - N/A   Clear
7:16 PM 15.8 °F - 6.8 °F 68% 30.72 in 10.0 mi Calm Calm - N/A   Clear
7:36 PM 12.2 °F 6.1 °F 1.4 °F 62% 30.72 in 10.0 mi ENE 3.5 mph - N/A   Clear
7:56 PM 15.8 °F - 5.0 °F 62% 30.73 in 10.0 mi Calm Calm - N/A   Clear
8:16 PM 14.0 °F - 3.2 °F 62% 30.73 in 10.0 mi Calm Calm - N/A   Clear
8:36 PM 21.2 °F 13.6 °F 6.8 °F 54% 30.74 in 10.0 mi West 5.8 mph - N/A   Clear
8:56 PM 21.2 °F - -0.4 °F 39% 30.75 in 10.0 mi Calm Calm - N/A   Clear
9:16 PM 17.6 °F 7.3 °F 1.4 °F 49% 30.75 in 10.0 mi SE 8.1 mph - N/A   Clear
9:36 PM 14.0 °F - 3.2 °F 62% 30.76 in 10.0 mi Calm Calm - N/A   Clear
9:56 PM 14.0 °F - 3.2 °F 62% 30.75 in 10.0 mi Calm Calm - N/A   Partly Cloudy
10:16 PM 15.8 °F 10.2 °F 5.0 °F 62% 30.75 in 10.0 mi East 3.5 mph - N/A   Clear
10:36 PM 14.0 °F 5.1 °F 1.4 °F 57% 30.76 in 10.0 mi East 5.8 mph - N/A   Clear
10:56 PM 15.8 °F - 6.8 °F 68% 30.75 in 10.0 mi Calm Calm - N/A   Clear
11:16 PM 14.0 °F - 3.2 °F 62% 30.75 in 10.0 mi Calm Calm - N/A   Clear
11:36 PM 14.0 °F 2.9 °F 5.0 °F 67% 30.75 in 10.0 mi East 8.1 mph - N/A   Clear
11:56 PM 17.6 °F - 6.8 °F 63% 30.75 in 10.0 mi Calm Calm - N/A   Clear